H1 CPF 2 NER 2024 11 18 9 323 01 glonass106 H2 0705201 9106 32275 2024 11 18 0 0 0 2024 11 21 23 45 0 900 1 1 0 0 0 1 H9 10 0 60632 0.00000 0 -10861665.518 4808685.599 -22563593.137 10 0 60632 900.00000 0 -10536137.733 2001037.711 -23134949.168 10 0 60632 1800.00000 0 -10423813.626 -865728.221 -23256601.433 10 0 60632 2700.00000 0 -10529465.168 -3719810.457 -22926223.182 10 0 60632 3600.00000 0 -10845149.425 -6489817.545 -22150275.036 10 0 60632 4500.00000 0 -11350563.229 -9107498.852 -20943876.563 10 0 60632 5400.00000 0 -12013935.678 -11510344.857 -19330509.792 10 0 60632 6300.00000 0 -12793420.581 -13643949.775 -17341560.474 10 0 60632 7200.00000 0 -13638929.997 -15464038.956 -15015705.985 10 0 60632 8100.00000 0 -14494331.397 -16938077.528 -12398161.707 10 0 60632 9000.00000 0 -15299915.648 -18046394.247 -9539800.467 10 0 60632 9900.00000 0 -15995031.537 -18782774.742 -6496162.191 10 0 60632 10800.00000 0 -16520775.490 -19154500.602 -3326373.106 10 0 60632 11700.00000 0 -16822622.768 -19181833.965 -91995.642 10 0 60632 12600.00000 0 -16852888.825 -18896970.533 3144168.321 10 0 60632 13500.00000 0 -16572916.699 -18342506.241 6319297.346 10 0 60632 14400.00000 0 -15954897.881 -17569483.129 9371769.545 10 0 60632 15300.00000 0 -14983249.533 -16635097.583 12242357.038 10 0 60632 16200.00000 0 -13655489.669 -15600168.046 14875372.539 10 0 60632 17100.00000 0 -11982572.937 -14526469.153 17219746.024 10 0 60632 18000.00000 0 -9988672.279 -13474044.626 19230010.875 10 0 60632 18900.00000 0 -7710414.792 -12498611.750 20867180.887 10 0 60632 19800.00000 0 -5195602.786 -11649166.240 22099501.758 10 0 60632 20700.00000 0 -2501472.312 -10965887.641 22903063.101 10 0 60632 21600.00000 0 307439.467 -10478432.705 23262259.716 10 0 60632 22500.00000 0 3161730.671 -10204687.937 23170093.625 10 0 60632 23400.00000 0 5989774.888 -10150033.321 22628311.234 10 0 60632 24300.00000 0 8720456.746 -10307147.985 21647372.951 10 0 60632 25200.00000 0 11285890.513 -10656366.027 20246255.531 10 0 60632 26100.00000 0 13624009.765 -11166567.793 18452090.450 10 0 60632 27000.00000 0 15680921.358 -11796569.573 16299644.603 10 0 60632 27900.00000 0 17412926.402 -12496953.698 13830652.551 10 0 60632 28800.00000 0 18788124.495 -13212262.416 11093012.515 10 0 60632 29700.00000 0 19787534.593 -13883463.423 8139860.999 10 0 60632 30600.00000 0 20405685.932 -14450583.129 5028543.512 10 0 60632 31500.00000 0 20650654.442 -14855396.350 1819501.171 10 0 60632 32400.00000 0 20543543.452 -15044058.373 -1424905.160 10 0 60632 33300.00000 0 20117430.810 -14969567.444 -4641610.061 10 0 60632 34200.00000 0 19415827.185 -14593952.677 -7768073.911 10 0 60632 35100.00000 0 18490711.061 -13890093.806 -10743503.844 10 0 60632 36000.00000 0 17400223.810 -12843094.720 -13510040.921 10 0 60632 36900.00000 0 16206122.726 -11451151.552 -16013889.736 10 0 60632 37800.00000 0 14971099.991 -9725877.498 -18206368.023 10 0 60632 38700.00000 0 13756081.114 -7692069.518 -20044855.540 10 0 60632 39600.00000 0 12617617.062 -5386925.610 -21493623.614 10 0 60632 40500.00000 0 11605480.093 -2858744.504 -22524529.345 10 0 60632 41400.00000 0 10760564.444 -165161.279 -23117561.193 10 0 60632 42300.00000 0 10113180.007 2629008.145 -23261225.658 10 0 60632 43200.00000 0 9681810.318 5454224.426 -22952767.911 10 0 60632 44100.00000 0 9472386.565 8238882.414 -22198222.423 10 0 60632 45000.00000 0 9478107.533 10912058.886 -21012292.829 10 0 60632 45900.00000 0 9679812.379 13406236.661 -19418063.545 10 0 60632 46800.00000 0 10046889.933 15659892.359 -17446548.749 10 0 60632 47700.00000 0 10538685.630 17619840.680 -15136087.494 10 0 60632 48600.00000 0 11106346.232 19243238.259 -12531596.636 10 0 60632 49500.00000 0 11695024.081 20499164.334 -9683696.040 10 0 60632 50400.00000 0 12246347.433 21369713.098 -6647723.104 10 0 60632 51300.00000 0 12701052.176 21850553.053 -3482655.842 10 0 60632 52200.00000 0 13001663.419 21950931.053 -249965.607 10 0 60632 53100.00000 0 13095113.311 21693121.935 2987577.937 10 0 60632 54000.00000 0 12935184.171 21111348.008 6167126.146 10 0 60632 54900.00000 0 12484673.406 20250214.753 9226971.076 10 0 60632 55800.00000 0 11717188.483 19162729.429 12107741.658 10 0 60632 56700.00000 0 10618495.850 17907986.507 14753553.105 10 0 60632 57600.00000 0 9187366.458 16548617.702 17113087.433 10 0 60632 58500.00000 0 7435881.707 15148113.869 19140584.404 10 0 60632 59400.00000 0 5389186.137 13768131.167 20796724.206 10 0 60632 60300.00000 0 3084696.236 12465894.160 22049385.350 10 0 60632 61200.00000 0 570797.284 11291804.269 22874263.717 10 0 60632 62100.00000 0 -2094918.683 10287353.170 23255341.357 10 0 60632 63000.00000 0 -4847801.803 9483427.868 23185196.427 10 0 60632 63900.00000 0 -7618592.180 8899077.835 22665148.464 10 0 60632 64800.00000 0 -10336066.196 8540795.375 21705236.207 10 0 60632 65700.00000 0 -12929772.634 8402338.979 20324028.075 10 0 60632 66600.00000 0 -15332746.017 8465106.962 18548268.462 10 0 60632 67500.00000 0 -17484085.197 8699045.652 16412365.983 10 0 60632 68400.00000 0 -19331290.572 9064054.089 13957732.762 10 0 60632 69300.00000 0 -20832262.921 9511826.279 11231986.798 10 0 60632 70200.00000 0 -21956880.684 9988053.480 8288032.157 10 0 60632 71100.00000 0 -22688089.853 10434893.653 5183034.345 10 0 60632 72000.00000 0 -23022460.841 10793603.574 1977310.516 10 0 60632 72900.00000 0 -22970189.019 11007221.980 -1266843.894 10 0 60632 73800.00000 0 -22554538.984 11023189.624 -4486369.040 10 0 60632 74700.00000 0 -21810756.096 10795794.517 -7618670.889 10 0 60632 75600.00000 0 -20784491.446 10288337.908 -10602843.252 10 0 60632 76500.00000 0 -19529806.952 9474928.216 -13380857.180 10 0 60632 77400.00000 0 -18106845.143 8341825.892 -15898693.914 10 0 60632 78300.00000 0 -16579262.234 6888281.186 -18107398.876 10 0 60632 79200.00000 0 -15011533.038 5126828.257 -19964035.873 10 0 60632 80100.00000 0 -13466241.421 3083022.094 -21432522.849 10 0 60632 81000.00000 0 -12001470.417 794628.125 -22484332.993 10 0 60632 81900.00000 0 -10668401.595 -1689702.498 -23099047.834 10 0 60632 82800.00000 0 -9509224.240 -4312217.492 -23264751.882 10 0 60632 83700.00000 0 -8555441.631 -7008234.146 -22978261.497 10 0 60632 84600.00000 0 -7826644.789 -9708606.383 -22245183.891 10 0 60632 85500.00000 0 -7329804.402 -12342385.942 -21079805.321 10 0 60633 0.00000 0 -7059109.692 -14839567.250 -19504811.000 10 0 60633 900.00000 0 -6996359.953 -17133803.498 -17550841.260 10 0 60633 1800.00000 0 -7111891.660 -19164977.977 -15255894.785 10 0 60633 2700.00000 0 -7366000.710 -20881528.489 -12664587.632 10 0 60633 3600.00000 0 -7710799.458 -22242425.033 -9827284.401 10 0 60633 4500.00000 0 -8092429.278 -23218720.187 -6799117.686 10 0 60633 5400.00000 0 -8453534.609 -23794607.820 -3638915.083 10 0 60633 6300.00000 0 -8735893.401 -23967946.627 -408054.763 10 0 60633 7200.00000 0 -8883092.260 -23750227.403 2830727.865 10 0 60633 8100.00000 0 -8843132.785 -23165986.332 6014558.921 10 0 60633 9000.00000 0 -8570858.530 -22251689.773 9081646.350 10 0 60633 9900.00000 0 -8030099.678 -21054138.192 11972477.820 10 0 60633 10800.00000 0 -7195444.505 -19628456.891 14630972.943 10 0 60633 11700.00000 0 -6053562.483 -18035758.334 17005567.616 10 0 60633 12600.00000 0 -4604022.718 -16340574.339 19050209.736 10 0 60633 13500.00000 0 -2859572.638 -14608165.774 20725247.482 10 0 60633 14400.00000 0 -845864.254 -12901822.106 21998193.569 10 0 60633 15300.00000 0 1399361.602 -11280263.353 22844351.288 10 0 60633 16200.00000 0 3827600.275 -9795252.399 23247290.800 10 0 60633 17100.00000 0 6381363.674 -8489516.705 23199166.944 10 0 60633 18000.00000 0 8996343.309 -7395065.501 22700872.624 10 0 60633 18900.00000 0 11603867.418 -6531972.033 21762024.822 10 0 60633 19800.00000 0 14133551.350 -5907671.138 20400783.217 10 0 60633 20700.00000 0 16516032.091 -5516801.058 18643504.392 10 0 60633 21600.00000 0 18685674.129 -5341595.737 16524237.623 10 0 60633 22500.00000 0 20583134.640 -5352810.926 14084071.197 10 0 60633 23400.00000 0 22157681.444 -5511145.008 11370341.126 10 0 60633 24300.00000 0 23369167.129 -5769094.621 8435716.919 10 0 60633 25200.00000 0 24189576.761 -6073166.687 5337181.597 10 0 60633 26100.00000 0 24604084.206 -6366353.180 2134925.551 10 0 60633 27000.00000 0 24611572.564 -6590763.605 -1108824.255 10 0 60633 27900.00000 0 24224596.688 -6690303.242 -4331016.745 10 0 60633 28800.00000 0 23468789.254 -6613282.984 -7469006.709 10 0 60633 29700.00000 0 22381735.418 -6314849.348 -10461777.785 10 0 60633 30600.00000 0 21011363.557 -5759130.735 -13251133.992 10 0 60633 31500.00000 0 19413920.072 -4921007.994 -15782835.945 10 0 60633 32400.00000 0 17651613.808 -3787433.267 -18007659.180 10 0 60633 33300.00000 0 15790029.428 -2358240.237 -19882353.688 10 0 60633 34200.00000 0 13895418.732 -646410.454 -21370485.818 10 0 60633 35100.00000 0 12031983.751 1322216.613 -22443146.293 10 0 60633 36000.00000 0 10259265.545 3509778.702 -23079510.797 10 0 60633 36900.00000 0 8629747.917 5867737.066 -23267242.531 10 0 60633 37800.00000 0 7186775.932 8338678.517 -23002729.317 10 0 60633 38700.00000 0 5962875.711 10858498.753 -22291150.928 10 0 60633 39600.00000 0 4978544.971 13358876.493 -21146375.631 10 0 60633 40500.00000 0 4241563.915 15769935.837 -19590688.062 10 0 60633 41400.00000 0 3746854.199 18022986.350 -17654353.796 10 0 60633 42300.00000 0 3476890.688 20053227.011 -15375029.020 10 0 60633 43200.00000 0 3402647.470 21802301.594 -12797026.743 10 0 60633 44100.00000 0 3485037.166 23220599.201 -9970453.709 10 0 60633 45000.00000 0 3676781.824 24269204.161 -6950234.836 10 0 60633 45900.00000 0 3924635.515 24921414.191 -3795044.205 10 0 60633 46800.00000 0 4171863.922 25163763.771 -566163.558 10 0 60633 47700.00000 0 4360875.442 24996510.416 2673709.242 10 0 60633 48600.00000 0 4435891.969 24433564.087 5861678.338 10 0 60633 49500.00000 0 4345545.941 23501863.369 8935870.685 10 0 60633 50400.00000 0 4045293.467 22240225.195 11836635.612 10 0 60633 51300.00000 0 3499541.213 20697716.934 14507699.794 10 0 60633 52200.00000 0 2683396.904 18931619.441 16897255.397 10 0 60633 53100.00000 0 1583969.211 17005066.667 18958960.529 10 0 60633 54000.00000 0 201161.707 14984460.575 20652833.133 10 0 60633 54900.00000 0 -1452073.199 12936769.181 21946021.582 10 0 60633 55800.00000 0 -3350031.982 10926820.174 22813437.677 10 0 60633 56700.00000 0 -5455098.045 9014702.351 23238240.410 10 0 60633 57600.00000 0 -7719086.439 7253382.484 23212161.598 10 0 60633 58500.00000 0 -10085040.527 5686636.120 22735667.323 10 0 60633 59400.00000 0 -12489407.186 4347377.713 21817952.109 10 0 60633 60300.00000 0 -14864501.342 3256458.920 20476765.631 10 0 60633 61200.00000 0 -17141158.405 2421984.511 18738074.848 10 0 60633 62100.00000 0 -19251465.146 1839173.856 16635567.361 10 0 60633 63000.00000 0 -21131455.936 1490773.287 14210004.820 10 0 60633 63900.00000 0 -22723662.228 1348001.626 11508438.098 10 0 60633 64800.00000 0 -23979408.957 1371988.784 8583298.736 10 0 60633 65700.00000 0 -24860761.655 1515646.503 5491383.744 10 0 60633 66600.00000 0 -25342042.406 1725891.963 2292753.220 10 0 60633 67500.00000 0 -25410850.634 1946129.810 -950437.790 10 0 60633 68400.00000 0 -25068545.436 2118887.070 -4175150.270 10 0 60633 69300.00000 0 -24330168.759 2188488.630 -7318690.922 10 0 60633 70200.00000 0 -23223812.414 2103659.152 -10319936.078 10 0 60633 71100.00000 0 -21789455.357 1819940.260 -13120525.326 10 0 60633 72000.00000 0 -20077320.169 1301819.610 -15666000.953 10 0 60633 72900.00000 0 -18145817.908 524480.708 -17906870.553 10 0 60633 73800.00000 0 -16059167.811 -524901.550 -19799571.805 10 0 60633 74700.00000 0 -13884791.923 -1846375.387 -21307320.485 10 0 60633 75600.00000 0 -11690593.953 -3426970.847 -22400825.338 10 0 60633 76500.00000 0 -9542236.247 -5241013.858 -23058856.132 10 0 60633 77400.00000 0 -7500528.638 -7250983.455 -23268654.157 10 0 60633 78300.00000 0 -5619037.878 -9408877.098 -23026177.579 10 0 60633 79200.00000 0 -3942016.892 -11658027.782 -22336177.189 10 0 60633 80100.00000 0 -2502739.554 -13935297.632 -21212101.326 10 0 60633 81000.00000 0 -1322309.483 -16173556.949 -19675831.979 10 0 60633 81900.00000 0 -408991.488 -18304345.653 -17757257.222 10 0 60633 82800.00000 0 241907.698 -20260606.331 -15493688.267 10 0 60633 83700.00000 0 647605.790 -21979375.007 -12929132.404 10 0 60633 84600.00000 0 836878.020 -23404317.406 -10113435.864 10 0 60633 85500.00000 0 848598.936 -24488004.796 -7101313.300 10 0 60634 0.00000 0 729855.600 -25193834.300 -3951283.107 10 0 60634 900.00000 0 533712.801 -25497513.804 -724527.724 10 0 60634 1800.00000 0 316725.796 -25388048.588 2516294.398 10 0 60634 2700.00000 0 136306.241 -24868189.967 5708267.400 10 0 60634 3600.00000 0 48053.464 -23954326.431 8789439.086 10 0 60634 4500.00000 0 103164.296 -22675822.713 11700022.150 10 0 60634 5400.00000 0 346031.353 -21073834.781 14383551.918 10 0 60634 6300.00000 0 812131.466 -19199650.631 16787978.273 10 0 60634 7200.00000 0 1526293.677 -17112626.484 18866670.841 10 0 60634 8100.00000 0 2501420.159 -14877804.610 20579318.454 10 0 60634 9000.00000 0 3737714.382 -12563311.969 21892706.058 10 0 60634 9900.00000 0 5222449.678 -10237647.722 22781354.666 10 0 60634 10800.00000 0 6930288.820 -7966971.988 23228012.549 10 0 60634 11700.00000 0 8824142.369 -5812507.876 23223988.705 10 0 60634 12600.00000 0 10856531.221 -3828164.055 22769322.357 10 0 60634 13500.00000 0 12971397.791 -2058475.839 21872785.282 10 0 60634 14400.00000 0 15106291.678 -536949.543 20551716.640 10 0 60634 15300.00000 0 17194839.862 715121.720 18831693.014 10 0 60634 16200.00000 0 19169399.476 1689322.226 16746039.336 10 0 60634 17100.00000 0 20963783.222 2390230.719 14335189.369 10 0 60634 18000.00000 0 22515944.065 2834986.061 11645907.316 10 0 60634 18900.00000 0 23770507.097 3052320.222 8730384.932 10 0 60634 19800.00000 0 24681042.413 3081099.744 5645231.098 10 0 60634 20700.00000 0 25211983.353 2968437.621 2450373.221 10 0 60634 21600.00000 0 25340108.998 2767455.832 -792108.216 10 0 60634 22500.00000 0 25055528.035 2534793.720 -4019189.059 10 0 60634 23400.00000 0 24362121.947 2327968.337 -7168130.813 10 0 60634 24300.00000 0 23277428.311 2202699.340 -10177705.358 10 0 60634 25200.00000 0 21831968.667 2210312.615 -12989390.594 10 0 60634 26100.00000 0 20068048.874 2395333.485 -15548513.036 10 0 60634 27000.00000 0 18038082.174 2793372.341 -17805314.665 10 0 60634 27900.00000 0 15802505.292 3429393.038 -19715922.924 10 0 60634 28800.00000 0 13427374.898 4316438.142 -21243204.852 10 0 60634 29700.00000 0 10981745.096 5454865.685 -22357488.803 10 0 60634 30600.00000 0 8534935.501 6832130.461 -23037139.952 10 0 60634 31500.00000 0 6153803.869 8423119.879 -23268978.710 10 0 60634 32400.00000 0 3900136.741 10191031.044 -23048534.279 10 0 60634 33300.00000 0 1828266.367 12088753.028 -22380128.766 10 0 60634 34200.00000 0 -16987.440 14060697.040 -21276790.454 10 0 60634 35100.00000 0 -1601965.676 16044998.447 -19759998.086 10 0 60634 36000.00000 0 -2905341.125 17975998.958 -17859261.174 10 0 60634 36900.00000 0 -3918764.307 19786905.428 -15611544.428 10 0 60634 37800.00000 0 -4646958.847 21412514.275 -13060547.468 10 0 60634 38700.00000 0 -5107263.752 22791887.569 -10255853.672 10 0 60634 39600.00000 0 -5328643.308 23870868.769 -7251964.768 10 0 60634 40500.00000 0 -5350207.677 24604332.684 -4107239.973 10 0 60634 41400.00000 0 -5219307.818 24958075.340 -882760.453 10 0 60634 42300.00000 0 -4989286.281 24910264.483 2358858.507 10 0 60634 43200.00000 0 -4716979.801 24452389.937 5554684.281 10 0 60634 44100.00000 0 -4460080.026 23589674.039 8642688.692 10 0 60634 45000.00000 0 -4274464.488 22340925.101 11562950.852 10 0 60634 45900.00000 0 -4211611.042 20737840.131 14258817.605 10 0 60634 46800.00000 0 -4316205.233 18823786.114 16677999.209 10 0 60634 47700.00000 0 -4624041.809 16652110.814 18773579.217 10 0 60634 48600.00000 0 -5160309.001 14284053.515 20504919.491 10 0 60634 49500.00000 0 -5938328.120 11786342.508 21838443.405 10 0 60634 50400.00000 0 -6958801.834 9228578.964 22748282.702 10 0 60634 51300.00000 0 -8209603.342 6680515.373 23216776.100 10 0 60634 52200.00000 0 -9666116.056 4209340.854 23234810.518 10 0 60634 53100.00000 0 -11292110.631 1877085.276 22801998.590 10 0 60634 54000.00000 0 -13041123.785 -261750.968 21926689.095 10 0 60634 54900.00000 0 -14858282.556 -2162244.013 20625809.857 10 0 60634 55800.00000 0 -16682498.940 -3790686.162 18924545.678 10 0 60634 56700.00000 0 -18448944.283 -5125750.706 16855856.850 10 0 60634 57600.00000 0 -20091700.858 -6159134.127 14459846.747 10 0 60634 58500.00000 0 -21546480.232 -6895649.495 11782989.950 10 0 60634 59400.00000 0 -22753294.845 -7352767.779 8877235.119 10 0 60634 60300.00000 0 -23658970.701 -7559626.891 5798999.458 10 0 60634 61200.00000 0 -24219395.334 -7555550.698 2608074.003 10 0 60634 62100.00000 0 -24401405.963 -7388141.013 -633539.021 10 0 60634 63000.00000 0 -24184237.681 -7111023.756 -3862833.972 10 0 60634 63900.00000 0 -23560469.886 -6781345.263 -7017030.663 10 0 60634 64800.00000 0 -22536430.286 -6457125.452 -10034799.867 10 0 60634 65700.00000 0 -21132038.708 -6194580.709 -12857460.896 10 0 60634 66600.00000 0 -19380096.665 -6045530.684 -15430127.304 10 0 60634 67500.00000 0 -17325052.023 -6054999.587 -17702777.898 10 0 60634 68400.00000 0 -15021290.229 -6259114.227 -19631231.885 10 0 60634 69300.00000 0 -12531023.517 -6683388.411 -21178009.027 10 0 60634 70200.00000 0 -9921866.190 -7341466.785 -22313058.143 10 0 60634 71100.00000 0 -7264197.105 -8234381.746 -23014340.038 10 0 60634 72000.00000 0 -4628419.226 -9350355.318 -23268253.815 10 0 60634 72900.00000 0 -2082230.122 -10665154.881 -23069898.696 10 0 60634 73800.00000 0 311983.400 -12142988.353 -22423166.548 10 0 60634 74700.00000 0 2499518.662 -13737901.750 -21340663.591 10 0 60634 75600.00000 0 4435400.495 -15395620.893 -19843462.962 10 0 60634 76500.00000 0 6086010.563 -17055760.472 -17960692.964 10 0 60634 77400.00000 0 7430235.833 -18654308.056 -15728968.970 10 0 60634 78300.00000 0 8460089.613 -20126279.097 -13191679.950 10 0 60634 79200.00000 0 9180780.649 -21408431.647 -10398143.396 10 0 60634 80100.00000 0 9610228.884 -22441926.837 -7402645.065 10 0 60634 81000.00000 0 9778049.728 -23174823.363 -4263382.288 10 0 60634 81900.00000 0 9724051.020 -23564301.079 -1041331.516 10 0 60634 82800.00000 0 9496307.295 -23578520.156 2200937.571 10 0 60634 83700.00000 0 9148893.748 -23198037.541 5400478.077 10 0 60634 84600.00000 0 8739376.474 -22416721.142 8495188.106 10 0 60634 85500.00000 0 8326165.733 -21242123.217 11425015.170 10 0 60635 0.00000 0 7965844.512 -19695297.388 14133119.106 10 0 60635 900.00000 0 7710585.351 -17810065.877 16566972.435 10 0 60635 1800.00000 0 7605764.998 -15631769.588 18679373.486 10 0 60635 2700.00000 0 7687876.915 -13215550.171 20429357.946 10 0 60635 3600.00000 0 7982830.037 -10624237.243 21782988.111 10 0 60635 4500.00000 0 8504705.301 -7925927.412 22714006.650 10 0 60635 5400.00000 0 9255022.431 -5191355.178 23204342.646 10 0 60635 6300.00000 0 10222548.205 -2491164.033 23244460.604 10 0 60635 7200.00000 0 11383654.905 106809.892 22833546.003 10 0 60635 8100.00000 0 12703214.746 2540129.887 21979523.850 10 0 60635 9000.00000 0 14135993.858 4754119.892 20698909.685 10 0 60635 9900.00000 0 15628488.486 6703897.731 19016495.415 10 0 60635 10800.00000 0 17121127.553 8355996.677 16964875.420 10 0 60635 11700.00000 0 18550750.194 9689508.653 14583821.250 10 0 60635 12600.00000 0 19853255.054 10696701.987 11919516.252 10 0 60635 13500.00000 0 20966310.555 11383088.555 9023664.193 10 0 60635 14400.00000 0 21832012.334 11766938.050 5952488.600 10 0 60635 15300.00000 0 22399375.840 11878260.322 2765641.961 10 0 60635 16200.00000 0 22626558.631 11757299.199 -474954.103 10 0 60635 17100.00000 0 22482717.997 11452601.926 -3706314.899 10 0 60635 18000.00000 0 21949424.713 11018746.376 -6865621.043 10 0 60635 18900.00000 0 21021572.357 10513822.883 -9891444.635 10 0 60635 19800.00000 0 19707742.909 9996777.931 -12724948.742 10 0 60635 20700.00000 0 18030012.315 9524732.882 -15311036.136 10 0 60635 21600.00000 0 16023203.409 9150391.916 -17599424.449 10 0 60635 22500.00000 0 13733616.870 8919649.452 -19545626.460 10 0 60635 23400.00000 0 11217292.883 8869498.774 -21111816.285 10 0 60635 24300.00000 0 8537875.820 9026330.653 -22267564.674 10 0 60635 25200.00000 0 5764170.750 9404694.131 -22990429.357 10 0 60635 26100.00000 0 2967493.415 10006572.043 -23266389.231 10 0 60635 27000.00000 0 218923.659 10821202.038 -23090114.370 10 0 60635 27900.00000 0 -2413423.830 11825450.907 -22465066.911 10 0 60635 28800.00000 0 -4866998.458 12984726.676 -21403431.132 10 0 60635 29700.00000 0 -7087174.967 14254390.389 -19925874.233 10 0 60635 30600.00000 0 -9029279.600 15581608.433 -18061142.512 10 0 60635 31500.00000 0 -10660197.808 16907567.750 -15845500.747 10 0 60635 32400.00000 0 -11959497.659 18169960.947 -13322025.588 10 0 60635 33300.00000 0 -12920023.357 19305636.870 -10539766.591 10 0 60635 34200.00000 0 -13547935.428 20253305.127 -7552791.203 10 0 60635 35100.00000 0 -13862197.375 20956180.669 -4419132.295 10 0 60635 36000.00000 0 -13893531.795 21364456.957 -1199658.866 10 0 60635 36900.00000 0 -13682891.258 21437503.379 2043107.870 10 0 60635 37800.00000 0 -13279509.595 21145694.220 5246209.668 10 0 60635 38700.00000 0 -12738616.842 20471791.924 8347473.851 10 0 60635 39600.00000 0 -12118915.082 19411826.266 11286719.249 10 0 60635 40500.00000 0 -11479922.328 17975432.183 14006922.005 10 0 60635 41400.00000 0 -10879296.848 16185631.768 16455318.672 10 0 60635 42300.00000 0 -10370254.945 14078069.154 18584425.444 10 0 60635 43200.00000 0 -9999190.968 11699729.782 20352954.230 10 0 60635 44100.00000 0 -9803599.627 9107196.868 21726608.393 10 0 60635 45000.00000 0 -9810387.831 6364516.995 22678743.396 10 0 60635 45900.00000 0 -10034646.932 3540762.722 23190880.204 10 0 60635 46800.00000 0 -10478936.898 707392.487 23253062.045 10 0 60635 47700.00000 0 -11133112.710 -2064483.637 22864047.925 10 0 60635 48600.00000 0 -11974700.669 -4706819.986 22031339.280 10 0 60635 49500.00000 0 -12969809.466 -7157221.556 20771039.027 10 0 60635 50400.00000 0 -14074538.573 -9361294.035 19107545.299 10 0 60635 51300.00000 0 -15236825.706 -11274660.936 17073085.119 10 0 60635 52200.00000 0 -16398656.645 -12864564.635 14707096.253 10 0 60635 53100.00000 0 -17498545.255 -14110985.268 12055468.370 10 0 60635 54000.00000 0 -18474179.888 -15007231.284 9169657.508 10 0 60635 54900.00000 0 -19265125.000 -15559977.483 6105690.365 10 0 60635 55800.00000 0 -19815464.026 -15788749.356 2923077.493 10 0 60635 56700.00000 0 -20076271.659 -15724875.925 -316343.604 10 0 60635 57600.00000 0 -20007810.531 -15409955.693 -3549612.779 10 0 60635 58500.00000 0 -19581358.679 -14893900.978 -6713875.037 10 0 60635 59400.00000 0 -18780589.635 -14232643.885 -9747607.351 10 0 60635 60300.00000 0 -17602445.791 -13485601.511 -12591819.961 10 0 60635 61200.00000 0 -16057467.167 -12713008.265 -15191208.089 10 0 60635 62100.00000 0 -14169560.663 -11973228.706 -17495231.135 10 0 60635 63000.00000 0 -11975218.585 -11320165.063 -19459098.017 10 0 60635 63900.00000 0 -9522218.401 -10800869.389 -21044639.289 10 0 60635 64800.00000 0 -6867857.492 -10453461.479 -22221049.151 10 0 60635 65700.00000 0 -4076796.051 -10305440.539 -22965483.133 10 0 60635 66600.00000 0 -1218597.657 -10372461.860 -23263500.161 10 0 60635 67500.00000 0 1634930.531 -10657629.971 -23109340.764 10 0 60635 68400.00000 0 4412487.780 -11151337.975 -22506036.379 10 0 60635 69300.00000 0 7046006.102 -11831659.707 -21465347.860 10 0 60635 70200.00000 0 9473240.200 -12665278.146 -20007534.563 10 0 60635 71100.00000 0 11640114.027 -13608910.911 -18160958.504 10 0 60635 72000.00000 0 13502727.115 -14611172.817 -15961531.267 10 0 60635 72900.00000 0 15028938.087 -15614796.983 -13452014.304 10 0 60635 73800.00000 0 16199460.377 -16559120.892 -10681186.121 10 0 60635 74700.00000 0 17008425.569 -17382732.509 -7702892.543 10 0 60635 75600.00000 0 17463392.104 -18026164.777 -4574998.546 10 0 60635 76500.00000 0 17584800.312 -18434524.637 -1358262.187 10 0 60635 77400.00000 0 17404898.017 -18559945.476 1884847.199 10 0 60635 78300.00000 0 16966183.158 -18363759.267 5091363.289 10 0 60635 79200.00000 0 16319430.130 -17818296.547 8199045.616 10 0 60635 80100.00000 0 15521383.951 -16908238.036 11147586.987 10 0 60635 81000.00000 0 14632220.138 -15631460.644 13879781.857 10 0 60635 81900.00000 0 13712877.812 -13999341.843 16342633.099 10 0 60635 82800.00000 0 12822378.558 -12036509.092 18488375.871 10 0 60635 83700.00000 0 12015243.899 -9780044.176 20275399.205 10 0 60635 84600.00000 0 11339119.790 -7278174.897 21669048.019 10 0 60635 85500.00000 0 10832707.660 -4588507.823 22642290.669 99